Home   Weather   Telfs   Past weeks

Flag for Austria Past Weather in Telfs, Tyrol, Austria — Yesterday and Last 2 Weeks

Now
21 °F

Clear.


Feels Like: 21 °F
Forecast: 26 / 45 °F
Wind: 1 mph from North

Location: Innsbruck-Flughafen

Current Time: Dec 8, 2016 at 7:18:13 am

Latest Report: Dec 8, 2016 at 6:20 am


Visibility: 10 mi

Pressure: 30.63 "Hg (28.26 "Hg at 630m altitude)

Humidity: 86%

Dew Point: 18 °F

Location of TelfsLocation

Past Weather in Telfs — Graph

°F

Telfs Temperature Yesterday

Maximum temperature yesterday: 41 °F (at 1:50 pm)
Minimum temperature yesterday: 19 °F (at 4:20 am)
Average temperature yesterday: 27 °F

High & Low Weather Summary for the Past Weeks

 TemperatureHumidityPressure
High54 °F (Nov 23, 12:50 pm)100% (Nov 25, 1:20 am)30.63 "Hg (Nov 25, 1:20 am)
Low18 °F (Dec 4, 8:20 am)33% (Dec 7, 2:50 pm)29.95 "Hg (Nov 25, 1:20 pm)
Average33 °F81%30.24 "Hg
* Reported Nov 23 5:20 am — Dec 8 5:50 am, Telfs, Weather by CustomWeather, © 2016

Note: Actual official high and low records may vary slightly from our data, if they occured in-between our weather recording intervals... More about our weather records

Advertising

Telfs Weather History for the Previous 24 Hours

Scroll right to see more
 ConditionsComfort  
Time TempWeatherWind HumidityBarometerVisibility
5:50 am
Thu, Dec 8
21 °FClear.3 mph86%30.63 "Hg10 mi
5:20 am21 °FCold.3 mph86%30.63 "HgN/A
4:50 am19 °FCold.1 mph86%30.63 "HgN/A
4:20 am19 °FCold.1 mph93%30.60 "HgN/A
3:50 am21 °FPassing clouds.No wind86%30.60 "HgN/A
3:20 am21 °FPassing clouds.2 mph86%30.63 "HgN/A
2:20 am21 °FCold.2 mph86%30.63 "HgN/A
1:50 am21 °FCold.2 mph86%30.63 "HgN/A
1:20 am21 °FCold.2 mph86%30.63 "HgN/A
12:50 am23 °FCold.2 mph80%30.63 "HgN/A
12:20 am21 °FCold.2 mph80%30.63 "HgN/A
11:50 pm
Wed, Dec 7
21 °FCold.1 mph86%30.63 "HgN/A
11:20 pm23 °FCold.3 mph80%30.63 "HgN/A
10:50 pm23 °FClear.2 mph80%30.63 "Hg10 mi
10:20 pm25 °FClear.2 mph74%30.63 "Hg10 mi
9:50 pm25 °FClear.1 mph74%30.60 "Hg10 mi
9:20 pm27 °FClear.3 mph74%30.60 "Hg10 mi
8:50 pm27 °FClear.1 mph74%30.60 "Hg10 mi
8:20 pm25 °FClear.2 mph74%30.60 "Hg10 mi
7:50 pm25 °FClear.2 mph74%30.60 "Hg10 mi
7:20 pm27 °FClear.1 mph69%30.57 "Hg10 mi
6:50 pm27 °FClear.2 mph74%30.57 "Hg10 mi
6:20 pm27 °FClear.2 mph69%30.57 "Hg10 mi
5:50 pm30 °FClear.2 mph64%30.57 "Hg10 mi
5:20 pm28 °FClear.2 mph64%30.54 "Hg10 mi
4:50 pm30 °FClear.No wind64%30.54 "Hg10 mi
4:20 pm32 °FSunny.1 mph55%30.54 "Hg10 mi
3:50 pm34 °FSunny.1 mph51%30.51 "Hg10 mi
3:20 pm37 °FPassing clouds.3 mph45%30.51 "HgN/A
2:50 pm41 °FSunny.2 mph33%30.48 "Hg10 mi
2:20 pm41 °FSunny.5 mph36%30.51 "Hg10 mi
1:50 pm41 °FPassing clouds.3 mph36%30.51 "HgN/A
1:20 pm39 °FPassing clouds.6 mph42%30.51 "HgN/A
12:50 pm37 °FPassing clouds.3 mph41%30.54 "HgN/A
12:20 pm36 °FPassing clouds.6 mph48%30.54 "HgN/A
11:50 am36 °FPassing clouds.5 mph52%30.54 "HgN/A
11:20 am34 °FPassing clouds.6 mph60%30.57 "HgN/A
10:50 am32 °FSunny.2 mph64%30.57 "Hg10 mi
10:20 am28 °FPassing clouds.3 mph69%30.60 "HgN/A
9:50 am27 °FSunny.2 mph80%30.60 "Hg10 mi
9:20 am25 °FSunny.1 mph86%30.60 "Hg10 mi
8:50 am19 °FSunny.2 mph93%30.60 "Hg10 mi
8:20 am19 °FSunny.2 mph93%30.60 "Hg10 mi
7:50 am19 °FSunny.3 mph93%30.60 "Hg10 mi
7:20 am19 °FClear.1 mph86%30.60 "Hg10 mi
Weather by CustomWeather, © 2016

See weather overviewHow to use our weather pages